CW1575 Weather Reports


Display with metric or nautical units.
time (UTC)temp
F
wind
direction
speed
MPH
gust
MPH
rain 1hr
in
rain 24hr
in
rain mn
in
humidity
%
barometer
mb
20150305040459 10 115 1.0 2.0 0.00 0.07 0.00 80 1024.1
20150305035500 10 113 0.0 1.0 0.00 0.07 0.00 80 1023.9
20150305034459 10 113 0.0 1.0 0.00 0.07 0.00 79 1023.8
20150305033459 11 113 0.0 1.0 0.00 0.07 0.00 79 1023.7
20150305032459 11 113 0.0 0.0 0.00 0.07 0.00 78 1023.6
20150305031459 11 113 0.0 1.0 0.00 0.07 0.00 78 1023.4
20150305030459 12 113 0.0 0.0 0.00 0.07 0.00 77 1023.2
20150305025459 12 113 0.0 1.0 0.00 0.07 0.00 76 1023.5
20150305024459 12 113 0.0 1.0 0.00 0.07 0.00 75 1023.4
20150305023459 13 113 1.0 1.0 0.00 0.07 0.00 74 1023.4
20150305022459 13 113 0.0 0.0 0.00 0.07 0.00 73 1023.2
20150305021459 14 113 0.0 1.0 0.00 0.07 0.00 73 1023.1
20150305020459 14 113 1.0 2.0 0.00 0.07 0.00 72 1023.0
20150305015459 14 101 0.0 1.0 0.00 0.07 0.00 71 1022.9
20150305014459 15 101 0.0 1.0 0.00 0.07 0.00 71 1022.9
20150305013459 15 101 0.0 1.0 0.00 0.07 0.00 70 1022.8
20150305012459 16 101 0.0 1.0 0.00 0.07 0.00 69 1022.6
20150305011458 16 101 0.0 0.0 0.00 0.07 0.00 68 1022.5
20150305010459 17 101 0.0 1.0 0.00 0.07 0.00 68 1022.5
20150305005459 17 101 0.0 2.0 0.00 0.07 0.00 68 1022.2
20150305004459 17 101 1.0 3.0 0.00 0.07 0.00 68 1022.2
20150305003459 18 101 0.0 3.0 0.00 0.07 0.00 67 1022.2
20150305002459 18 42 1.0 2.0 0.00 0.07 0.00 66 1021.8
20150305001459 18 5 0.0 1.0 0.00 0.07 0.00 64 1021.7
20150305000459 19 5 0.0 3.0 0.00 0.07 0.00 63 1021.4
20150304235459 19 340 1.0 6.0 0.00 0.07 0.00 64 1021.4
20150304234459 19 23 2.0 3.0 0.00 0.07 0.00 64 1021.3
20150304233459 20 355 2.0 5.0 0.00 0.07 0.00 64 1021.4
20150304232459 20 15 3.0 7.0 0.00 0.07 0.00 64 1021.3
20150304231459 20 338 2.0 5.0 0.00 0.07 0.00 64 1021.1
20150304230459 21 342 3.0 6.0 0.00 0.07 0.00 63 1021.0
20150304225458 21 26 3.0 7.0 0.00 0.07 0.00 62 1021.0
20150304224459 22 12 2.0 9.0 0.00 0.07 0.00 63 1020.9
20150304223459 23 30 5.0 8.0 0.00 0.07 0.00 59 1020.7
20150304222459 23 342 3.0 5.0 0.00 0.07 0.00 58 1020.6
20150304221458 22 26 1.0 3.0 0.00 0.07 0.00 56 1020.4
20150304220459 22 337 2.0 6.0 0.00 0.07 0.00 59 1020.6
20150304215459 22 43 2.0 3.0 0.00 0.07 0.00 58 1020.2
20150304214459 23 100 2.0 6.0 0.00 0.07 0.00 58 1020.4
20150304213459 24 14 7.0 12.0 0.00 0.07 0.00 60 1020.2
20150304212459 23 20 3.0 5.0 0.00 0.07 0.00 62 1020.3
20150304211459 22 18 3.0 7.0 0.00 0.07 0.00 61 1020.3
20150304210500 23 85 3.0 9.0 0.00 0.07 0.00 60 1020.0
20150304205459 23 46 3.0 12.0 0.00 0.07 0.00 61 1020.1
20150304204459 22 20 3.0 10.0 0.00 0.07 0.00 64 1020.1
20150304203458 22 56 3.0 8.0 0.00 0.07 0.00 63 1020.2
20150304202458 22 27 6.0 10.0 0.00 0.07 0.00 63 1020.4
20150304201459 23 18 7.0 14.0 0.00 0.07 0.00 61 1020.3
20150304200459 23 27 7.0 12.0 0.00 0.07 0.00 67 1020.5
20150304195459 21 29 3.0 10.0 0.00 0.07 0.00 70 1020.3
20150304194458 20 3 3.0 12.0 0.00 0.07 0.00 71 1020.4
20150304193459 19 29 4.0 12.0 0.00 0.07 0.00 72 1020.6
20150304192459 19 22 6.0 12.0 0.00 0.07 0.00 72 1020.6
20150304191459 19 25 3.0 9.0 0.00 0.07 0.00 71 1020.6
20150304190459 18 22 5.0 10.0 0.00 0.07 0.00 71 1020.8
20150304185459 19 12 4.0 7.0 0.00 0.07 0.00 71 1020.8
20150304184459 19 17 5.0 9.0 0.00 0.07 0.00 70 1020.8
20150304183459 19 67 2.0 7.0 0.00 0.07 0.00 70 1020.9
20150304182459 19 33 2.0 5.0 0.00 0.07 0.00 70 1020.7
20150304181459 19 20 3.0 7.0 0.00 0.07 0.00 71 1020.8
20150304180459 20 38 2.0 8.0 0.00 0.07 0.00 69 1020.8
20150304175459 20 24 4.0 8.0 0.00 0.07 0.00 67 1020.7
20150304174458 21 34 3.0 9.0 0.00 0.07 0.00 66 1020.9
20150304173459 22 72 2.0 7.0 0.00 0.07 0.00 64 1020.7
20150304172459 22 58 2.0 7.0 0.00 0.07 0.00 64 1020.7
20150304171458 23 111 4.0 7.0 0.00 0.07 0.00 63 1020.7
20150304170459 22 102 2.0 7.0 0.00 0.07 0.00 65 1020.8
20150304165458 22 21 3.0 7.0 0.00 0.07 0.00 67 1020.9
20150304164459 21 68 2.0 5.0 0.00 0.07 0.00 69 1021.0
20150304163459 20 69 3.0 5.0 0.00 0.07 0.00 73 1021.0
20150304162459 18 31 2.0 5.0 0.00 0.07 0.00 75 1021.0
20150304161459 17 38 2.0 3.0 0.00 0.07 0.00 77 1021.2
20150304160459 16 14 0.0 3.0 0.00 0.07 0.00 78 1021.2
20150304155458 15 39 2.0 3.0 0.00 0.07 0.00 80 1021.1
20150304154458 15 36 2.0 5.0 0.00 0.07 0.00 81 1021.1
20150304153458 14 36 2.0 5.0 0.00 0.07 0.00 82 1021.0
20150304101506 11 4 5.0 9.0 0.00 0.07 0.00 84 1016.9
20150304100505 12 4 4.0 10.0 0.00 0.07 0.00 84 1016.7
20150304095506 12 16 5.0 10.0 0.00 0.07 0.00 84 1016.7
20150304094506 12 21 2.0 8.0 0.00 0.07 0.00 84 1016.7
20150304093505 12 5 2.0 6.0 0.00 0.07 0.00 85 1016.7
20150304092506 13 348 3.0 6.0 0.00 0.07 0.00 85 1016.7
20150304091516 13 339 3.0 8.0 0.00 0.07 0.00 85 1016.5
20150304090505 13 339 2.0 5.0 0.00 0.07 0.00 85 1016.2
20150304085506 13 12 2.0 6.0 0.00 0.07 0.00 85 1016.4
20150304084505 13 345 3.0 6.0 0.00 0.07 0.00 85 1016.4
20150304083506 13 5 3.0 9.0 0.00 0.07 0.00 85 1016.1
20150304082506 13 338 2.0 6.0 0.00 0.07 0.00 85 1016.0
20150304081505 13 345 3.0 9.0 0.00 0.07 0.00 85 1015.7
20150304080506 14 346 3.0 6.0 0.00 0.07 0.00 84 1015.6
20150304075506 14 338 3.0 9.0 0.00 0.07 0.00 84 1015.4
20150304074506 14 357 4.0 8.0 0.00 0.07 0.00 84 1015.0
20150304073505 15 356 3.0 6.0 0.01 0.07 0.00 84 1014.9
20150304072506 15 355 3.0 6.0 0.01 0.07 0.00 84 1014.7
20150304071506 16 341 2.0 7.0 0.01 0.07 0.00 85 1014.5
20150304070505 16 351 3.0 8.0 0.01 0.07 0.00 85 1014.5
20150304065505 17 356 2.0 8.0 0.01 0.07 0.07 86 1014.5
20150304064507 18 336 3.0 6.0 0.02 0.07 0.07 87 1014.4
20150304063506 18 34 4.0 9.0 0.01 0.06 0.06 87 1014.3
20150304062505 18 16 2.0 5.0 0.01 0.06 0.06 87 1014.2
20150304061505 18 358 2.0 5.0 0.01 0.06 0.06 88 1014.1
20150304060506 18 11 2.0 3.0 0.01 0.06 0.06 88 1014.1
20150304055505 18 11 1.0 3.0 0.01 0.06 0.06 88 1014.1
20150304054505 18 10 2.0 5.0 0.00 0.05 0.05 87 1014.1
20150304053506 18 4 2.0 3.0 0.00 0.05 0.05 87 1014.1
20150304052506 19 38 2.0 3.0 0.01 0.05 0.05 87 1013.7
20150304051505 19 0 1.0 3.0 0.02 0.05 0.05 87 1013.6
20150304050505 19 17 1.0 3.0 0.04 0.05 0.05 87 1013.5
20150304045506 19 17 3.0 5.0 0.05 0.05 0.05 87 1013.7
20150304044506 19 17 2.0 3.0 0.05 0.05 0.05 87 1013.6
20150304043505 19 19 3.0 3.0 0.05 0.05 0.05 87 1013.6
20150304042505 19 31 3.0 5.0 0.04 0.04 0.04 86 1013.4
20150304041505 19 16 3.0 5.0 0.03 0.03 0.03 86 1013.5